JCSAT-110A (JCSAT-15)

Last updated on Tue Sep 22 2026 00:03:14 GMT+0000 (Coordinated Universal Time)

1 41903U 16082A 26263.94068505 -.00000355 00000+0 00000+0 0 9992 2 41903 0.0169 174.7828 0000669 352.0143 281.7675 1.00271033 35710
UTC large
Height (km)
Speed (km/s)
/
Latitude / Longitude
Inclination (degrees)
Orbital Period (minutes)
Azimuth
Elevation
Range (km)
Doppler Factor

Next 0 passes for location: London (51.5072 / 0.1276)

No passes found over London.
JCSAT-110A (JCSAT-15)